Tracking 34719 objects as of 12-Jul-2026
HD Live streaming from Space Station
objects crossing your sky now

STARLINK-37617

Track STARLINK-37617 now!
10-day predictions
STARLINK-37617 is classified as:


NORAD ID: 69314
Int'l Code: 2026-119U
Perigee: 471.5 km
Apogee: 473.9 km
Inclination: 97.3 °
Period: 93.9 minutes
Semi major axis: 6843 km
RCS: Unknown
Launch date: May 30, 2026
Source: United States (US)
Launch site: AIR FORCE WESTERN TEST RANGE (AFWTR)
Your satellite tracking list
Your tracking list is empty




NASA's NSSDC Master Catalog

Two Line Element Set (TLE):
1 69314U 26119U   26193.59313146  .00011620  00000-0  36168-3 0  9992
2 69314  97.2830 219.3758 0001754 103.5078 256.6360 15.33446578  7955
Source of the keplerian elements: AFSPC